EDT,Max TemperatureF,Mean TemperatureF,Min TemperatureF,Max Dew PointF,MeanDew PointF,Min DewpointF,Max Humidity, Mean Humidity, Min Humidity, Max Sea Level PressureIn, Mean Sea Level PressureIn, Min Sea Level PressureIn, Max VisibilityMiles, Mean VisibilityMiles, Min VisibilityMiles, Max Wind SpeedMPH, Mean Wind SpeedMPH, Max Gust SpeedMPH,PrecipitationIn, CloudCover, Events, WindDirDegrees
2013-9-1,84,78,71,71,67,64,82,72,61,29.87,29.79,29.72,10,8,5,9,5,,0.00,6,Rain,103
2013-9-2,80,72,64,67,61,50,84,67,43,29.91,29.81,29.73,10,9,5,20,8,24,0.00,4,,311
2013-9-3,77,68,60,54,52,49,72,62,43,30.03,29.98,29.92,10,10,10,12,8,22,0.00,5,,315
2013-9-4,82,68,55,60,55,47,84,62,29,30.10,30.05,30.01,10,10,10,15,7,21,0.00,0,,265
2013-9-5,75,65,55,61,52,43,83,64,34,30.27,30.18,30.08,10,10,10,10,7,,0.01,1,,340
2013-9-6,75,62,48,54,46,32,93,61,25,30.29,30.22,30.08,10,10,2,8,1,,0.00,0,,172
2013-9-7,86,70,57,66,59,50,81,67,52,30.08,29.98,29.90,10,10,9,10,5,,0.01,3,Rain,225
2013-9-8,78,68,57,66,58,49,78,63,43,30.09,30.02,29.92,10,10,7,15,9,17,0.00,4,,40
2013-9-9,78,66,55,69,61,49,88,79,69,30.08,30.00,29.92,10,7,2,9,2,,0.20,4,Rain,126
2013-9-10,95,82,69,71,67,62,88,65,34,30.01,29.96,29.90,10,6,1,16,7,,0.00,0,,222
2013-9-11,93,83,73,73,67,63,79,65,45,30.04,29.99,29.91,10,9,5,28,9,34,0.10,1,Rain,236
2013-9-12,81,71,57,65,58,49,81,65,38,29.96,29.91,29.84,10,10,7,26,8,41,0.00,3,,304
2013-9-13,64,55,46,47,44,39,83,64,45,30.15,30.05,29.96,10,10,10,17,10,24,0.00,5,,340
2013-9-14,70,54,39,48,40,35,86,60,30,30.21,30.15,30.11,10,10,10,8,3,,0.00,0,,224
2013-9-15,68,59,50,54,49,44,86,74,52,30.13,30.10,30.06,10,10,7,9,3,,0.01,4,Rain,240
2013-9-16,68,58,48,54,49,40,88,72,44,30.38,30.27,30.14,10,10,5,16,7,21,0.03,5,,3
2013-9-17,71,55,39,51,43,36,89,68,39,30.42,30.35,30.23,10,10,10,10,4,,0.01,1,,104
2013-9-18,78,62,48,57,50,40,86,68,28,30.22,30.14,30.05,10,10,6,10,2,,0.00,0,,143
2013-9-19,82,68,55,67,60,53,94,80,50,30.06,30.02,29.94,10,4,0,10,3,,0.00,4,Fog,184
2013-9-20,86,78,69,70,66,59,88,78,55,29.92,29.82,29.74,10,6,2,15,9,28,0.33,7,Rain,206
2013-9-21,72,66,59,64,56,45,88,71,45,29.87,29.74,29.68,10,9,2,18,9,26,0.56,6,Rain,294
2013-9-22,64,57,51,43,41,38,74,57,48,30.09,30.00,29.89,10,10,10,14,8,16,0.00,6,,343
2013-9-23,66,54,44,46,42,39,83,66,42,30.20,30.15,30.09,10,10,10,6,4,,0.00,3,,49
2013-9-24,71,58,45,51,46,41,90,72,46,30.16,30.09,30.01,10,10,8,7,2,,0.00,3,,88
2013-9-25,73,60,46,55,48,43,93,73,45,30.03,29.99,29.95,10,8,2,8,4,,0.01,0,,46
2013-9-26,79,62,46,52,46,43,88,71,31,30.15,30.07,30.00,10,6,0,10,2,,0.01,0,Fog,48
2013-9-27,78,62,46,58,51,45,94,75,43,30.25,30.20,30.15,10,8,0,10,3,17,0.01,0,Fog,99
2013-9-28,79,64,50,61,52,46,94,78,37,30.22,30.17,30.03,10,5,0,12,1,17,0.01,2,Fog,127
2013-9-29,66,63,60,61,58,52,88,81,70,30.03,29.99,29.97,10,6,1,10,6,,0.05,7,Rain,235
2013-9-30,73,65,57,58,55,50,94,78,46,30.02,29.99,29.93,10,6,0,10,3,,0.04,4,Fog,244